EW5537 Weather Reports


time (UTC)temp
C
wind
direction
speed
KPH
gust
KPH
rain 1hr
cm
rain 24hr
cm
rain mn
cm
humidity
%
barometer
mb
20260902134531 16 26 0.0 0.0 0.00 0.00 0.00 81 1016.0
20260902134018 16 26 0.0 0.0 0.00 0.00 0.00 81 1016.1
20260902133518 16 26 0.0 0.0 0.00 0.00 0.00 81 1016.0
20260902133031 16 26 0.0 0.0 0.00 0.00 0.00 81 1015.9
20260902132524 16 26 0.0 0.0 0.00 0.00 0.00 82 1015.9
20260902132005 16 26 0.0 0.0 0.00 0.00 0.00 81 1015.9
20260902131507 16 26 0.0 0.0 0.00 0.00 0.00 81 1015.9
20260902131007 16 26 0.0 0.0 0.00 0.00 0.00 81 1015.9
20260902130508 16 26 0.0 0.0 0.00 0.00 0.00 81 1015.9
20260902130005 16 26 0.0 3.2 0.00 0.00 0.00 81 1015.9
20260902125505 16 26 0.0 3.2 0.00 0.00 0.00 81 1015.9
20260902125004 16 26 0.0 3.2 0.00 0.00 0.00 82 1015.9
20260902124508 16 23 0.0 0.0 0.00 0.00 0.00 81 1015.9
20260902124004 16 23 0.0 0.0 0.00 0.00 0.00 81 1015.9
20260902123507 16 23 0.0 0.0 0.00 0.00 0.00 81 1015.9
20260902123010 16 23 0.0 0.0 0.00 0.00 0.00 81 1015.9
20260902122509 16 23 0.0 0.0 0.00 0.00 0.00 81 1016.0
20260902122007 16 23 0.0 0.0 0.00 0.00 0.00 81 1016.0
20260902121509 16 23 0.0 0.0 0.00 0.00 0.00 81 1016.1
20260902121005 16 23 0.0 0.0 0.00 0.00 0.00 81 1016.1
20260902120509 16 23 0.0 0.0 0.00 0.00 0.00 81 1016.1
20260902120020 16 23 0.0 0.0 0.00 0.00 0.00 81 1016.1
20260902115509 16 23 0.0 0.0 0.00 0.00 0.00 81 1016.1
20260902115008 16 23 0.0 0.0 0.00 0.00 0.00 81 1016.2
20260902114504 16 23 0.0 0.0 0.00 0.00 0.00 82 1016.2
20260902114007 16 23 0.0 0.0 0.00 0.00 0.00 81 1016.1
20260902113505 16 23 0.0 0.0 0.00 0.00 0.00 80 1016.1
20260902113009 16 23 0.0 0.0 0.00 0.00 0.00 80 1016.1
20260902112508 16 23 0.0 0.0 0.00 0.00 0.00 80 1016.1
20260902112008 16 23 0.0 0.0 0.00 0.00 0.00 82 1016.1
20260902111512 15 23 0.0 0.0 0.00 0.00 0.00 81 1016.1
20260902111012 16 23 0.0 0.0 0.00 0.00 0.00 80 1016.0
20260902110508 16 23 0.0 0.0 0.00 0.00 0.00 80 1016.0
20260902110018 16 23 0.0 0.0 0.00 0.00 0.00 79 1016.0
20260902105508 16 23 0.0 0.0 0.00 0.00 0.00 79 1016.1
20260902105008 16 23 0.0 0.0 0.00 0.00 0.00 79 1016.1
20260902104515 16 23 0.0 0.0 0.00 0.00 0.00 79 1016.1
20260902104013 17 23 0.0 0.0 0.00 0.00 0.00 78 1016.1
20260902103509 17 23 0.0 0.0 0.00 0.00 0.00 79 1016.1
20260902103008 17 25 0.0 0.0 0.00 0.00 0.00 80 1016.1
20260902102507 17 22 0.0 0.0 0.00 0.00 0.00 80 1016.1
20260902102008 16 347 0.0 0.0 0.00 0.00 0.00 79 1016.1
20260902101510 16 347 0.0 0.0 0.00 0.00 0.00 79 1016.0
20260902101008 16 347 0.0 0.0 0.00 0.00 0.00 79 1016.0
20260902100510 16 348 0.0 0.0 0.00 0.00 0.00 78 1016.0
20260902100017 16 352 0.0 0.0 0.00 0.00 0.00 79 1016.0
20260902095510 16 333 0.0 0.0 0.00 0.00 0.00 77 1016.0
20260902095007 16 336 0.0 0.0 0.00 0.00 0.00 77 1016.0
20260902094520 16 337 0.0 0.0 0.00 0.00 0.00 78 1016.0
20260902094012 16 352 0.0 0.0 0.00 0.00 0.00 78 1016.0
20260902093514 17 352 0.0 3.2 0.00 0.00 0.00 77 1015.9
20260902093017 17 360 0.0 3.2 0.00 0.00 0.00 79 1016.0
20260902092514 17 329 0.0 0.0 0.00 0.00 0.00 78 1016.1
20260902092006 17 329 0.0 0.0 0.00 0.00 0.00 75 1016.0
20260902091511 17 360 0.0 0.0 0.00 0.00 0.00 78 1016.0
20260902091009 17 9 0.0 0.0 0.00 0.00 0.00 77 1016.0
20260902090508 17 5 0.0 3.2 0.00 0.00 0.00 77 1015.9
20260902090017 17 30 0.0 3.2 0.00 0.00 0.00 78 1016.0
20260902085510 17 34 0.0 3.2 0.00 0.00 0.00 75 1016.0
20260902085015 18 31 0.0 3.2 0.00 0.00 0.00 76 1016.0
20260902084518 17 360 0.0 3.2 0.00 0.00 0.00 76 1016.0
20260902084015 17 27 0.0 3.2 0.00 0.00 0.00 77 1016.1
20260902083511 17 34 0.0 3.2 0.00 0.00 0.00 76 1016.1
20260902083018 17 345 0.0 0.0 0.00 0.00 0.00 74 1016.1
20260902082512 17 345 0.0 0.0 0.00 0.00 0.00 73 1016.0
20260902082010 18 11 0.0 3.2 0.00 0.00 0.00 74 1016.0
20260902081521 18 5 0.0 3.2 0.00 0.00 0.00 74 1016.1
20260902081012 18 33 0.0 3.2 0.00 0.00 0.00 74 1016.1
20260902080506 18 13 0.0 3.2 0.00 0.00 0.00 74 1016.1
20260902080012 18 9 0.0 3.2 0.00 0.00 0.00 74 1016.0
20260902075507 18 348 0.0 3.2 0.00 0.00 0.00 73 1016.0
20260902075011 18 44 0.0 3.2 0.00 0.00 0.00 73 1015.9
20260902074517 18 35 0.0 3.2 0.00 0.00 0.00 72 1016.0
20260902074012 18 18 0.0 3.2 0.00 0.00 0.00 73 1015.9
20260902073511 18 22 0.0 3.2 0.00 0.00 0.00 72 1015.9
20260902073020 18 352 0.0 1.6 0.00 0.00 0.00 72 1015.9
20260902072513 18 19 0.0 3.2 0.00 0.00 0.00 72 1015.9
20260902072012 18 360 0.0 3.2 0.00 0.00 0.00 72 1015.8
20260902071526 17 5 0.0 0.0 0.00 0.00 0.00 72 1015.8
20260902071012 17 352 0.0 0.0 0.00 0.00 0.00 71 1015.8
20260902070514 17 352 0.0 1.6 0.00 0.00 0.00 70 1015.7
20260902070025 18 360 0.0 1.6 0.00 0.00 0.00 72 1015.8
20260902065514 18 5 0.0 3.2 0.00 0.00 0.00 71 1015.7
20260902065011 17 9 0.0 3.2 0.00 0.00 0.00 71 1015.6
20260902064515 17 352 0.0 0.0 0.00 0.00 0.00 70 1015.6
20260902064010 17 352 0.0 0.0 0.00 0.00 0.00 67 1015.5
20260902063511 17 5 0.0 0.0 0.00 0.00 0.00 67 1015.6
20260902063020 18 360 0.0 0.0 0.00 0.00 0.00 67 1015.6
20260902062513 18 5 0.0 0.0 0.00 0.00 0.00 68 1015.5
20260902062014 17 5 0.0 0.0 0.00 0.00 0.00 68 1015.6
20260902061527 17 360 0.0 0.0 0.00 0.00 0.00 67 1015.6
20260902061012 17 360 0.0 0.0 0.00 0.00 0.00 67 1015.5
20260902060507 17 360 0.0 0.0 0.00 0.00 0.00 66 1015.5
20260902060015 18 360 0.0 0.0 0.00 0.00 0.00 66 1015.5
20260902055509 18 360 0.0 0.0 0.00 0.00 0.00 67 1015.5
20260902055006 18 360 0.0 0.0 0.00 0.00 0.00 66 1015.4
20260902054513 17 9 0.0 0.0 0.00 0.00 0.00 64 1015.4
20260902054009 18 9 0.0 0.0 0.00 0.00 0.00 63 1015.4
20260902053509 17 9 0.0 0.0 0.00 0.00 0.00 64 1015.4
20260902053032 17 9 0.0 0.0 0.00 0.00 0.00 62 1015.5
20260902052515 17 9 0.0 0.0 0.00 0.00 0.00 60 1015.5
20260902052014 18 13 0.0 0.0 0.00 0.00 0.00 60 1015.5
20260902051524 18 349 0.0 0.0 0.00 0.00 0.00 61 1015.5
20260902051015 18 349 0.0 0.0 0.00 0.00 0.00 58 1015.5
20260902050512 18 349 0.0 0.0 0.00 0.00 0.00 58 1015.5
20260902050025 18 349 0.0 0.0 0.00 0.00 0.00 60 1015.4
20260902045505 18 349 0.0 0.0 0.00 0.00 0.00 61 1015.4
20260902045007 18 349 0.0 0.0 0.00 0.00 0.00 61 1015.4
20260902044511 18 349 0.0 0.0 0.00 0.00 0.00 62 1015.4
20260902044008 18 349 0.0 0.0 0.00 0.00 0.00 66 1015.3
20260902043507 18 349 0.0 0.0 0.00 0.00 0.00 67 1015.1
20260902043014 18 349 0.0 0.0 0.00 0.00 0.00 67 1015.1
20260902042511 18 349 0.0 0.0 0.00 0.00 0.00 68 1014.9
20260902042013 18 349 0.0 0.0 0.00 0.00 0.00 68 1014.7
20260902041525 18 349 0.0 0.0 0.00 0.00 0.00 66 1014.7
20260902041013 18 360 0.0 0.0 0.00 0.00 0.00 65 1014.7
20260902040518 19 5 0.0 3.2 0.00 0.00 0.00 65 1014.7
20260902040024 19 5 0.0 3.2 0.00 0.00 0.00 65 1014.7
20260902035517 19 360 0.0 0.0 0.00 0.00 0.00 66 1014.6
20260902035016 19 360 0.0 0.0 0.00 0.00 0.00 66 1014.5
20260902034528 19 5 0.0 0.0 0.00 0.00 0.00 66 1014.4
20260902034005 19 9 0.0 0.0 0.00 0.00 0.00 66 1014.3
20260902033507 20 9 0.0 0.0 0.00 0.00 0.00 67 1014.2
20260902033020 20 9 0.0 0.0 0.00 0.00 0.00 68 1014.1
20260902032511 20 9 0.0 0.0 0.00 0.00 0.00 70 1014.1
20260902032012 20 9 0.0 0.0 0.00 0.00 0.00 69 1014.2
20260902031518 20 9 0.0 0.0 0.00 0.00 0.00 68 1014.2
20260902031012 21 9 0.0 0.0 0.00 0.00 0.00 67 1014.2
20260902030512 21 9 0.0 0.0 0.00 0.00 0.00 67 1014.2
20260902030023 21 9 0.0 0.0 0.00 0.00 0.00 68 1014.2
20260902025516 20 9 0.0 0.0 0.00 0.00 0.00 68 1014.2
20260902025019 21 9 0.0 0.0 0.00 0.00 0.00 67 1014.2
20260902024526 21 9 0.0 0.0 0.00 0.00 0.00 67 1014.2
20260902024015 21 5 0.0 3.2 0.00 0.00 0.00 68 1014.1
20260902023513 20 23 0.0 3.2 0.00 0.00 0.00 68 1014.1
20260902023008 21 98 0.0 0.0 0.00 0.00 0.00 68 1014.0
20260902022507 20 122 0.0 3.2 0.00 0.00 0.00 67 1014.0
20260902022008 21 56 0.0 3.2 0.00 0.00 0.00 67 1014.0
20260902021514 21 134 0.0 3.2 0.00 0.00 0.00 67 1014.0
20260902021010 21 311 0.0 3.2 0.00 0.00 0.00 66 1014.0
20260902020513 21 311 0.0 3.2 0.00 0.00 0.00 66 1014.0
20260902020021 21 10 0.0 3.2 0.00 0.00 0.00 67 1014.1
20260902015513 21 327 0.0 3.2 0.00 0.00 0.00 66 1014.1
20260902015014 21 330 0.0 4.8 0.00 0.00 0.00 66 1014.1
20260902014534 21 294 0.0 4.8 0.00 0.00 0.00 66 1014.1
20260902014019 21 26 0.0 4.8 0.00 0.00 0.00 66 1014.1
20260902013517 21 196 0.0 4.8 0.00 0.00 0.00 67 1014.0
20260902013030 21 77 0.0 4.8 0.00 0.00 0.00 67 1014.2
20260902012516 21 329 0.0 4.8 0.00 0.00 0.00 68 1014.2
20260902012016 21 51 1.6 4.8 0.00 0.00 0.00 67 1014.2
20260902011523 21 81 0.0 6.4 0.00 0.00 0.00 67 1014.1
20260902011010 21 319 0.0 6.4 0.00 0.00 0.00 69 1014.1
20260902010511 21 84 1.6 4.8 0.00 0.00 0.00 68 1014.3
20260902010019 21 109 1.6 6.4 0.00 0.00 0.00 68 1014.4
20260902005512 22 96 1.6 6.4 0.00 0.00 0.00 68 1014.4
20260902005014 22 268 1.6 6.4 0.00 0.00 0.00 69 1014.3
20260902004529 21 46 1.6 6.4 0.00 0.00 0.00 70 1014.4
20260902004018 21 281 1.6 4.8 0.00 0.00 0.00 70 1014.5
20260902003515 22 111 0.0 6.4 0.00 0.00 0.00 68 1014.5
20260902003007 21 57 1.6 9.7 0.00 0.00 0.00 70 1014.5
20260902002504 22 352 1.6 9.7 0.00 0.00 0.00 69 1014.5
20260902002006 22 11 1.6 8.0 0.00 0.00 0.00 67 1014.6
20260902001506 22 316 1.6 8.0 0.00 0.00 0.00 67 1014.5
20260902001007 22 313 1.6 8.0 0.00 0.00 0.00 67 1014.5
20260902000511 23 333 1.6 6.4 0.00 0.00 0.00 67 1014.5
20260902000026 22 18 1.6 6.4 0.00 0.00 0.00 68 1014.5
20260901235512 22 53 0.0 8.0 0.00 0.00 0.00 68 1014.5
20260901235012 22 344 1.6 8.0 0.00 0.00 0.00 68 1014.6
20260901234546 22 141 1.6 6.4 0.00 0.00 0.00 68 1014.6
20260901234013 22 5 1.6 6.4 0.00 0.00 0.00 69 1014.6
20260901233515 22 19 1.6 6.4 0.00 0.00 0.00 68 1014.7
20260901233025 22 339 3.2 9.7 0.00 0.00 0.00 69 1014.6
20260901232516 23 278 3.2 9.7 0.00 0.00 0.00 67 1014.7
20260901232008 23 350 0.0 14.5 0.00 0.00 0.00 68 1014.7
20260901231511 23 51 3.2 11.3 0.00 0.00 0.00 67 1014.7
20260901231007 23 327 3.2 8.0 0.00 0.00 0.00 66 1014.7
20260901230510 22 30 3.2 9.7 0.00 0.00 0.00 68 1014.7
20260901230012 23 94 3.2 9.7 0.00 0.00 0.00 67 1014.7
20260901225508 23 332 1.6 9.7 0.00 0.00 0.00 67 1014.7
20260901225013 22 121 1.6 9.7 0.00 0.00 0.00 69 1014.8
20260901224525 22 342 1.6 16.1 0.00 0.00 0.00 68 1014.9
20260901224013 22 28 3.2 16.1 0.00 0.00 0.00 68 1014.9
20260901223516 23 360 1.6 12.9 0.00 0.00 0.00 70 1014.9
20260901223035 22 347 1.6 12.9 0.00 0.00 0.00 69 1014.9
20260901222516 22 26 1.6 9.7 0.00 0.00 0.00 70 1015.0
20260901222018 22 38 3.2 9.7 0.00 0.00 0.00 70 1015.0
20260901221534 22 149 3.2 8.0 0.00 0.00 0.00 68 1015.1
20260901221016 22 9 1.6 11.3 0.00 0.00 0.00 70 1015.1
20260901220503 23 85 1.6 11.3 0.00 0.00 0.00 68 1015.2
20260901220008 22 54 3.2 8.0 0.00 0.00 0.00 69 1015.2
20260901215509 22 109 3.2 9.7 0.00 0.00 0.00 69 1015.3
20260901215009 23 309 1.6 11.3 0.00 0.00 0.00 68 1015.4
20260901214515 23 290 1.6 16.1 0.00 0.00 0.00 69 1015.4
20260901214009 23 223 4.8 16.1 0.00 0.00 0.00 67 1015.4
20260901213513 23 315 1.6 12.9 0.00 0.00 0.00 68 1015.5
20260901213022 23 290 1.6 12.9 0.00 0.00 0.00 69 1015.5
20260901212512 23 173 1.6 6.4 0.00 0.00 0.00 67 1015.4
20260901212016 23 344 1.6 6.4 0.00 0.00 0.00 67 1015.5
20260901211538 22 110 1.6 6.4 0.00 0.00 0.00 69 1015.5
20260901211014 22 126 1.6 6.4 0.00 0.00 0.00 69 1015.6
20260901210517 22 31 1.6 9.7 0.00 0.00 0.00 70 1015.6
20260901210027 22 352 1.6 9.7 0.00 0.00 0.00 69 1015.7
20260901205507 22 225 3.2 8.0 0.00 0.00 0.00 68 1015.8
20260901205009 23 334 1.6 8.0 0.00 0.00 0.00 67 1015.8
20260901204515 23 5 1.6 8.0 0.00 0.00 0.00 66 1015.9
20260901204010 23 322 3.2 8.0 0.00 0.00 0.00 67 1015.9
20260901203511 22 298 1.6 6.4 0.00 0.00 0.00 67 1015.9
20260901203023 23 57 1.6 6.4 0.00 0.00 0.00 66 1015.9
20260901202514 23 337 1.6 8.0 0.00 0.00 0.00 67 1015.9
20260901202011 23 323 1.6 8.0 0.00 0.00 0.00 67 1016.1
20260901201522 23 344 1.6 6.4 0.00 0.00 0.00 66 1016.2
20260901201014 23 26 1.6 6.4 0.00 0.00 0.00 68 1016.3
20260901200517 23 360 1.6 9.7 0.00 0.00 0.00 68 1016.2
20260901200041 22 130 3.2 9.7 0.00 0.00 0.00 68 1016.3
20260901195516 23 22 1.6 8.0 0.00 0.00 0.00 68 1016.4
20260901195022 23 259 1.6 6.4 0.00 0.00 0.00 67 1016.4
20260901194514 23 295 1.6 6.4 0.00 0.00 0.00 68 1016.5
20260901194009 23 360 0.0 6.4 0.00 0.00 0.00 69 1016.5
20260901193510 22 211 0.0 6.4 0.00 0.00 0.00 68 1016.5
20260901193015 23 350 1.6 6.4 0.00 0.00 0.00 68 1016.5
20260901192514 22 270 1.6 11.3 0.00 0.00 0.00 69 1016.7
20260901192011 22 278 3.2 11.3 0.00 0.00 0.00 69 1016.7
20260901191527 22 175 1.6 6.4 0.00 0.00 0.00 70 1016.7
20260901191021 22 134 1.6 9.7 0.00 0.00 0.00 70 1016.7
20260901190516 22 132 3.2 9.7 0.00 0.00 0.00 70 1016.8
20260901190030 22 126 1.6 9.7 0.00 0.00 0.00 71 1016.7
20260901185516 22 144 1.6 6.4 0.00 0.00 0.00 70 1016.6
20260901185015 22 113 1.6 6.4 0.00 0.00 0.00 71 1016.6
20260901184530 21 163 3.2 6.4 0.00 0.00 0.00 71 1016.6
20260901184018 22 136 1.6 6.4 0.00 0.00 0.00 69 1016.6
20260901183515 22 164 1.6 6.4 0.00 0.00 0.00 70 1016.5
20260901183033 22 271 1.6 6.4 0.00 0.00 0.00 70 1016.6
20260901182508 21 283 1.6 6.4 0.00 0.00 0.00 71 1016.7
20260901182010 22 108 1.6 4.8 0.00 0.00 0.00 71 1016.6
20260901181520 22 42 1.6 4.8 0.00 0.00 0.00 70 1016.5
20260901181013 21 41 0.0 8.0 0.00 0.00 0.00 71 1016.5
20260901180512 21 123 1.6 8.0 0.00 0.00 0.00 71 1016.5
20260901180028 21 14 1.6 4.8 0.00 0.00 0.00 71 1016.6
20260901175519 21 105 1.6 4.8 0.00 0.00 0.00 71 1016.6
20260901175016 21 71 1.6 4.8 0.00 0.00 0.00 71 1016.6
20260901174527 21 139 0.0 3.2 0.00 0.00 0.00 72 1016.6
20260901174017 21 273 0.0 4.8 0.00 0.00 0.00 72 1016.6
20260901173517 21 111 1.6 4.8 0.00 0.00 0.00 72 1016.6
20260901173030 21 221 1.6 6.4 0.00 0.00 0.00 72 1016.6
20260901172520 21 14 1.6 6.4 0.00 0.00 0.00 72 1016.5
20260901172011 21 305 1.6 6.4 0.00 0.00 0.00 72 1016.6
20260901171518 21 113 0.0 4.8 0.00 0.00 0.00 72 1016.6
20260901171010 21 101 3.2 4.8 0.00 0.00 0.00 72 1016.6
20260901170511 20 48 0.0 4.8 0.00 0.00 0.00 74 1016.4
20260901170023 21 205 0.0 6.4 0.00 0.00 0.00 73 1016.4
20260901165512 21 127 1.6 6.4 0.00 0.00 0.00 72 1016.4
20260901165016 21 122 0.0 3.2 0.00 0.00 0.00 72 1016.4
20260901164527 21 117 0.0 8.0 0.00 0.00 0.00 70 1016.4
20260901164015 21 157 1.6 8.0 0.00 0.00 0.00 70 1016.4
20260901163515 21 146 0.0 6.4 0.00 0.00 0.00 72 1016.2
20260901163029 21 169 1.6 6.4 0.00 0.00 0.00 73 1016.3
20260901162520 20 153 1.6 3.2 0.00 0.00 0.00 72 1016.3
20260901162019 20 9 0.0 3.2 0.00 0.00 0.00 74 1016.3
20260901161533 20 200 0.0 3.2 0.00 0.00 0.00 73 1016.3
20260901161019 20 139 0.0 3.2 0.00 0.00 0.00 75 1016.3
20260901160509 20 117 0.0 3.2 0.00 0.00 0.00 74 1016.3
20260901160018 20 11 0.0 3.2 0.00 0.00 0.00 75 1016.3
20260901155514 20 21 0.0 3.2 0.00 0.00 0.00 75 1016.4
20260901155017 20 146 0.0 3.2 0.00 0.00 0.00 74 1016.4
20260901154524 20 105 0.0 3.2 0.00 0.00 0.00 75 1016.4
20260901154015 20 171 0.0 3.2 0.00 0.00 0.00 76 1016.3
20260901153504 20 170 0.0 3.2 0.00 0.00 0.00 77 1016.3
20260901153005 19 160 0.0 3.2 0.00 0.00 0.00 77 1016.3
20260901152505 19 221 0.0 3.2 0.00 0.00 0.00 77 1016.3
20260901152012 19 234 0.0 0.0 0.00 0.00 0.00 76 1016.3
20260901151509 19 234 0.0 0.0 0.00 0.00 0.00 77 1016.2
20260901151008 19 219 0.0 1.6 0.00 0.00 0.00 78 1016.0
20260901150514 19 200 0.0 1.6 0.00 0.00 0.00 77 1015.9
20260901150016 19 49 0.0 0.0 0.00 0.00 0.00 78 1015.9
20260901145510 18 51 0.0 0.0 0.00 0.00 0.00 78 1015.8
20260901145013 18 50 0.0 0.0 0.00 0.00 0.00 79 1015.7
20260901144533 18 51 0.0 0.0 0.00 0.00 0.00 78 1015.7
20260901144015 18 25 0.0 0.0 0.00 0.00 0.00 80 1015.7
20260901143504 17 25 0.0 0.0 0.00 0.00 0.00 81 1015.6
20260901143005 17 25 0.0 0.0 0.00 0.00 0.00 81 1015.4
20260901142508 17 25 0.0 0.0 0.00 0.00 0.00 81 1015.4
20260901142004 17 25 0.0 0.0 0.00 0.00 0.00 81 1015.4
20260901141510 17 25 0.0 0.0 0.00 0.00 0.00 82 1015.3
20260901141006 16 25 0.0 0.0 0.00 0.00 0.00 83 1015.2
20260901140509 16 25 0.0 0.0 0.00 0.00 0.00 83 1015.2
20260901140012 16 26 0.0 0.0 0.00 0.00 0.00 83 1015.2
20260901135511 16 26 0.0 0.0 0.00 0.00 0.00 83 1015.1
20260901135012 16 26 0.0 0.0 0.00 0.00 0.00 84 1015.0